Location: Unspecified
(34.4950°S, 58.5160°W)
Time: 08:12:37
(UTC+00:00)

ACS3 Solar Sail - Pass Details

Date: 20 February 2026
Orbit: 882 x 976 km, 97.2° (Epoch: 14 March)

Event Time Altitude Azimuth Distance (km) Brightness Sun altitude
Exits shadow 04:22:33 18° 153° (SSE) 2,136 4.0 -44.4°
Drops below altitude 10° 04:24:31 10° 167° (SSE) 2,700 4.7 -44.4°
Sets 04:27:21 0° 178° (S) 3,670 5.6 -44.3°
